Ana Sayfa
METAR-TAF:

METAR-TAF

Havaalanları :

Gage, Oklahoma, Amerika Birleşik Devletleri

Enlem: 36-17-48N, Boylam: 099-46-08W, yükseklik: 677 m

Güncel hava durumu gözlemi

Rapor saat 12:53 UTC de 37 dakika önce yapıldı.
Rüzgar kuzeybatıdan 11 kt ve 18 kt'a kadar ani rüzgarlar
Sıcaklık 7°C
Nem 66%
Basınç 1008 hPa
Görüş mesafesi: 16.1 km
Açık gökyüzü

METAR: KGAG 091253Z AUTO 32011G18KT 10SM CLR 07/01 A2976 RMK AO2 PRESRR SLP076 T00720006

Saat: 07:30 (13:30 UTC)


TAF: eksik

4.000'den fazla havaalanı için hava durumu gözlemleri ve tahminleri (METAR ve TAF raporları).

Kullanılabilir istasyonlar harita üzerinde sarı ve kırmızı noktalarla gösterilir.

İstasyonun adını görmek için fareyi noktanın üzerinde gezdirin.

Sonrasında hava gözlem ve tahminlerini görmek için tıklayın.

Haritayı değiştirmek için: yaklaştırmak için siyah artı işaretli yeşil düğmeye ve uzaklaştırmak için de eksi işaretli düğmeye hızla tıklayın; bitişik haritalar için yeşil okları kullanın.


METAR-TAF: